Home   Weather   City of Louisville   Past weeks
Flag for USA

Past Weather in City of Louisville, Georgia, USA — Yesterday and Last 2 Weeks

Now
93 °F

Passing clouds.


Feels Like: 101 °F
Forecast: 94 / 75 °F
Wind: 7 mph from North

Location: Daniel Field

Current Time: Jul 10, 2020 at 1:32:21 pm

Latest Report: Jul 10, 2020 at 12:53 pm


Visibility: 10 mi

Pressure: 29.91 "Hg

Humidity: 50%

Dew Point: 72 °F

Location of City of LouisvilleLocation

Past Weather in City of Louisville — Graph

°F

City of Louisville Temperature Yesterday

Maximum temperature yesterday: 89 °F (at 2:53 pm)
Minimum temperature yesterday: 75 °F (at 5:53 am)
Average temperature yesterday: 82 °F

High & Low Weather Summary for the Past Weeks

 TemperatureHumidityPressure
High96 °F (Jul 4, 3:53 pm)94% (Jul 6, 4:22 pm)30.18 "Hg (Jul 6, 4:22 pm)
Low71 °F (Jun 27, 7:30 pm)31% (Jul 4, 4:53 pm)29.82 "Hg (Jul 1, 6:53 pm)
Average81 °F72%29.96 "Hg
* Reported Jun 25 11:53 am — Jul 10 11:53 am, City of Louisville. Weather by CustomWeather, © 2020

Note: Actual official high and low records may vary slightly from our data, if they occured in-between our weather recording intervals... More about our weather records

City of Louisville Weather History for the Previous 24 Hours

Scroll right to see more
 ConditionsComfort  
Time TempWeatherWind HumidityBarometerVisibility
11:53 am
Fri, Jul 10
90 °FSunny.8 mph54%29.92 "Hg10 mi
10:53 am88 °FSunny.5 mph61%29.93 "Hg10 mi
9:53 am85 °FSunny.No wind65%29.93 "Hg10 mi
8:53 am81 °FSunny.5 mph74%29.94 "Hg10 mi
7:53 am78 °FPassing clouds.8 mph84%29.93 "Hg10 mi
6:53 am77 °FSunny.No wind88%29.92 "Hg10 mi
5:53 am77 °FClear.7 mph90%29.90 "Hg10 mi
4:53 am78 °FPartly cloudy.5 mph87%29.89 "Hg10 mi
3:53 am78 °FClear.No wind87%29.87 "Hg10 mi
2:53 am79 °FClear.No wind84%29.88 "Hg10 mi
1:53 am79 °FClear.3 mph84%29.89 "Hg10 mi
12:53 am80 °FPassing clouds.No wind81%29.90 "Hg10 mi
11:53 pm
Thu, Jul 9
81 °FPassing clouds.No wind77%29.92 "Hg10 mi
10:53 pm82 °FClear.3 mph72%29.90 "Hg10 mi
9:53 pm83 °FClear.6 mph74%29.87 "Hg10 mi
8:53 pm85 °FClear.3 mph68%29.87 "Hg10 mi
7:53 pm87 °FPartly sunny.8 mph63%29.86 "Hg10 mi
6:53 pm87 °FOvercast.6 mph61%29.87 "Hg10 mi
5:53 pm87 °FPartly sunny.7 mph63%29.86 "Hg10 mi
4:53 pm89 °FSunny.9 mph55%29.86 "Hg10 mi
3:53 pm89 °FPassing clouds.9 mph57%29.87 "Hg10 mi
2:53 pm89 °FScattered clouds.10 mph57%29.89 "Hg10 mi
1:53 pm88 °FPassing clouds.8 mph57%29.90 "Hg10 mi
Weather by CustomWeather, © 2020

See weather overview